[[{"header":{"parameterUnit":"m.s-1","parameterCategory":1,"la1":30.2991,"la2":30.254,"lo1":-89.0895,"lo2":-89.0444,"dy":0.0017,"dx":0.0017,"nx":28,"ny":28,"refTime":"2024-06-14T21:00:00:Z","depth":0,"parameterNumber":2,"parameterNumberName":"U-component_of_WINDS"},"data":[0,0,0,0,0,0,0,0,0,0,0,0,0,0,0,0,0,0,0,0,0,0,0,0,0,0,0,0,0,0,0,0,0,0,0,0,0,0,0,0,0,0,0,0,0,0,0,0,0,0,0,0,0,0,0,0,0,0,-0.1356,-0.1355,0,-0.1297,-0.1296,-0.1295,-0.1259,-0.1258,-0.1258,-0.1258,-0.1198,-0.1197,-0.1195,0,0,0,0,0,0,0,0,0,0,0,0,0,-0.1438,-0.1437,-0.1356,-0.1355,-0.1354,-0.1297,-0.1296,-0.1295,-0.1259,-0.1258,-0.1258,-0.1258,-0.1199,-0.1197,-0.1195,0,0,0,0,0,0,0,0,0,0,0,0,0,-0.1393,-0.1437,-0.1356,-0.1329,-0.1326,-0.1297,-0.1296,-0.1295,-0.1259,-0.1258,-0.1258,-0.1258,-0.1199,-0.1197,-0.1195,-0.1188,0,0,-0.1189,-0.1188,0,0,0,0,0,0,0,0,-0.1396,-0.139,-0.1334,-0.1331,-0.1328,-0.1285,-0.1303,-0.1259,-0.1259,-0.1284,-0.1258,-0.1258,-0.1227,-0.1223,-0.1212,-0.1185,-0.1183,-0.1188,-0.1187,-0.1186,-0.1186,0,0,0,0,0,0,0,-0.1399,-0.1393,-0.1332,-0.1333,-0.1329,-0.1321,-0.1314,-0.1295,-0.1258,-0.1282,-0.1279,-0.1273,-0.1225,-0.1215,-0.1211,-0.1182,-0.1188,-0.1187,-0.1185,-0.1184,-0.1146,-0.1147,0,0,0,0,0,0,-0.1406,-0.1396,-0.1334,-0.1331,-0.1362,-0.1319,-0.1312,-0.1299,-0.1258,-0.1252,-0.1273,-0.1271,-0.1218,-0.1213,-0.1208,-0.1198,-0.1186,-0.1184,-0.1183,-0.1146,-0.1147,-0.1147,0,0,0,0,0,0,-0.1408,-0.1401,-0.1337,-0.1362,-0.1353,-0.1318,-0.1304,-0.1298,-0.1287,-0.1251,-0.1245,-0.1269,-0.1218,-0.1211,-0.1193,-0.1195,-0.1183,-0.1181,-0.1146,-0.1146,-0.1147,-0.1177,0,0,0,0,0,0,-0.1411,-0.1402,-0.1399,-0.1363,-0.1352,-0.1323,-0.1304,-0.1297,-0.1283,-0.128,-0.1245,-0.1239,-0.1217,-0.1197,-0.1191,-0.1192,-0.118,-0.1146,-0.1146,-0.1147,-0.1176,-0.1178,-0.1181,0,0,0,0,0,-0.1414,-0.141,-0.1399,-0.1392,-0.1347,-0.1323,-0.1317,-0.1291,-0.1283,-0.128,-0.1258,-0.1241,-0.1196,-0.1195,-0.1189,-0.1189,-0.1145,-0.1146,-0.1146,-0.1175,-0.1178,-0.1181,0,0,0,0,0,0,-0.1448,-0.1405,-0.1392,-0.1376,-0.1353,-0.1317,-0.1312,-0.1295,-0.1275,-0.1273,-0.1242,-0.1234,-0.122,-0.1202,-0.1202,-0.1181,-0.1169,-0.1168,-0.1192,-0.1195,-0.1198,-0.1202,-0.1178,0,0,0,0,0,-0.1453,-0.1437,-0.14,-0.1389,-0.1379,-0.1347,-0.1335,-0.1318,-0.1293,-0.1283,-0.1259,-0.1236,-0.1217,-0.1205,-0.1185,-0.1173,-0.1165,-0.117,-0.1173,-0.1175,-0.1175,-0.1168,-0.117,-0.1149,-0.1149,-0.1149,0,0,-0.1465,-0.1439,-0.143,-0.1396,-0.1376,-0.136,-0.1339,-0.1323,-0.1311,-0.1281,-0.1262,-0.1244,-0.1216,-0.1201,-0.1193,-0.1187,-0.1179,-0.1176,-0.1178,-0.1176,-0.1168,-0.117,-0.1172,-0.1149,-0.1149,-0.1149,0,0,-0.1477,-0.1456,-0.1445,-0.1426,-0.1396,-0.1375,-0.1373,-0.1338,-0.1325,-0.1306,-0.1283,-0.1269,-0.1236,-0.1217,-0.1204,-0.121,-0.1193,-0.1204,-0.1217,-0.1211,-0.1212,-0.1214,-0.1217,-0.1218,-0.1204,-0.1204,-0.1204,0,-0.1496,-0.147,-0.1442,-0.1427,-0.1412,-0.1384,-0.1373,-0.1356,-0.1322,-0.1312,-0.1305,-0.1264,-0.1243,-0.1224,-0.1225,-0.1215,-0.1212,-0.1208,-0.1214,-0.1215,-0.1216,-0.1219,-0.122,-0.1206,-0.1205,-0.1205,-0.1205,0,-0.1494,-0.1477,-0.1471,-0.1439,-0.1424,-0.1411,-0.1381,-0.1369,-0.1353,-0.1333,-0.1314,-0.1288,-0.1263,-0.1257,-0.1241,-0.1236,-0.1232,-0.122,-0.1208,-0.122,-0.1222,-0.1223,-0.1208,-0.1207,-0.1207,-0.1206,0,0,-0.1527,-0.1479,-0.1477,-0.1462,-0.1428,-0.1414,-0.14,-0.1375,-0.1366,-0.1343,-0.1331,-0.1304,-0.1293,-0.1277,-0.1259,-0.1253,-0.126,-0.1241,-0.124,-0.1246,-0.1253,-0.1263,-0.1265,-0.1249,-0.1249,-0.1249,-0.1256,0,-0.1535,-0.1508,-0.1483,-0.1465,-0.1449,-0.1422,-0.141,-0.1388,-0.1369,-0.1353,-0.1332,-0.1313,-0.1299,-0.129,-0.1283,-0.1261,-0.1261,-0.126,-0.1238,-0.1237,-0.1246,-0.1265,-0.1276,-0.1284,-0.1256,-0.1256,-0.1256,0,-0.1541,-0.152,-0.1501,-0.1468,-0.146,-0.1449,-0.1425,-0.141,-0.1384,-0.137,-0.1353,-0.1333,-0.1318,-0.1307,-0.1285,-0.1285,-0.1275,-0.1262,-0.1262,-0.126,-0.1248,-0.1264,-0.1286,-0.1287,-0.1257,-0.1257,-0.1257,0,-0.1568,-0.1534,-0.1519,-0.1506,-0.1467,-0.1461,-0.1444,-0.1418,-0.1405,-0.1383,-0.1375,-0.1352,-0.134,-0.1323,-0.1297,-0.1291,-0.1279,-0.1266,-0.1268,-0.1269,-0.1267,-0.1268,-0.1288,-0.1259,-0.1259,-0.1259,-0.1259,0,-0.1581,-0.1571,-0.153,-0.1521,-0.1509,-0.1479,-0.1468,-0.1449,-0.1426,-0.1413,-0.1388,-0.1376,-0.1343,-0.1327,-0.1307,-0.1293,-0.1287,-0.1277,-0.1272,-0.1279,-0.1281,-0.1273,-0.1272,-0.1259,-0.1259,-0.1259,-0.1259,0,-0.1609,-0.1582,-0.1563,-0.1527,-0.1518,-0.1511,-0.148,-0.147,-0.145,-0.1433,-0.1428,-0.1396,-0.1376,-0.1349,-0.1321,-0.1308,-0.1296,-0.1288,-0.1305,-0.1302,-0.1307,-0.1307,-0.1323,-0.1324,-0.1294,-0.1294,-0.1295,0,-0.162,-0.1611,-0.1574,-0.1563,-0.1547,-0.153,-0.1516,-0.1487,-0.1474,-0.1444,-0.1438,-0.1416,-0.1397,-0.1367,-0.1342,-0.132,-0.1312,-0.1319,-0.1308,-0.1317,-0.1313,-0.1314,-0.1314,-0.1322,-0.1322,-0.1323,-0.1323,0,-0.1641,-0.1628,-0.1609,-0.1585,-0.1569,-0.155,-0.1529,-0.1521,-0.1487,-0.1474,-0.1454,-0.1439,-0.141,-0.1389,-0.1365,-0.1348,-0.133,-0.1326,-0.1326,-0.1334,-0.1345,-0.134,-0.1313,-0.1326,-0.1326,-0.1326,-0.1325,-0.1325,-0.1661,-0.1652,-0.1625,-0.1605,-0.1586,-0.1567,-0.1556,-0.1534,-0.1516,-0.149,-0.1474,-0.1454,-0.1429,-0.1394,-0.1378,-0.1362,-0.1355,-0.1354,-0.1354,-0.1355,-0.1358,-0.1347,-0.1358,-0.1357,-0.1357,-0.1357,-0.1357,0,-0.1682,-0.1663,-0.1645,-0.1616,-0.16,-0.1584,-0.156,-0.1548,-0.1531,-0.1508,-0.149,-0.1467,-0.1447,-0.1419,-0.1397,-0.139,-0.1381,-0.1385,-0.1386,-0.1383,-0.1365,-0.1368,-0.1393,-0.1393,-0.1393,-0.1393,-0.1393,-0.1393,-0.1691,-0.1676,-0.1659,-0.1634,-0.1615,-0.1596,-0.1583,-0.1566,-0.1548,-0.1523,-0.1505,-0.1487,-0.1463,-0.1439,-0.142,-0.1412,-0.1406,-0.1412,-0.1403,-0.1387,-0.1384,-0.1381,-0.1383,-0.1411,-0.1411,-0.1421,-0.1422,-0.1422]},{"header":{"parameterUnit":"m.s-1","parameterCategory":1,"la1":30.2991,"la2":30.254,"lo1":-89.0895,"lo2":-89.0444,"dy":0.0017,"dx":0.0017,"nx":28,"ny":28,"refTime":"2024-06-14T21:00:00:Z","depth":0,"parameterNumber":3,"parameterNumberName":"V-component_of_WINDS"},"data":[0,0,0,0,0,0,0,0,0,0,0,0,0,0,0,0,0,0,0,0,0,0,0,0,0,0,0,0,0,0,0,0,0,0,0,0,0,0,0,0,0,0,0,0,0,0,0,0,0,0,0,0,0,0,0,0,0,0,3.5978,3.5978,0,3.596,3.596,3.596,3.5932,3.5931,3.5931,3.593,3.591,3.591,3.591,0,0,0,0,0,0,0,0,0,0,0,0,0,3.5986,3.5986,3.5978,3.5978,3.5977,3.596,3.596,3.596,3.5932,3.5931,3.5931,3.593,3.591,3.591,3.591,0,0,0,0,0,0,0,0,0,0,0,0,0,3.5977,3.5986,3.5978,3.5961,3.596,3.596,3.596,3.596,3.5932,3.5931,3.5931,3.593,3.591,3.591,3.591,3.5924,0,0,3.591,3.591,0,0,0,0,0,0,0,0,3.5978,3.5977,3.5964,3.5963,3.5961,3.5947,3.5956,3.5948,3.5932,3.5943,3.593,3.593,3.5923,3.5922,3.592,3.5924,3.5923,3.591,3.591,3.591,3.591,0,0,0,0,0,0,0,3.5978,3.5977,3.5971,3.5964,3.5962,3.5955,3.5953,3.5954,3.5937,3.5942,3.594,3.5938,3.5922,3.592,3.592,3.5922,3.591,3.591,3.591,3.591,3.5938,3.5939,0,0,0,0,0,0,3.5981,3.5978,3.5971,3.597,3.5968,3.5955,3.5953,3.5952,3.5937,3.5934,3.5939,3.5937,3.5921,3.592,3.5919,3.5935,3.591,3.591,3.591,3.5937,3.5938,3.5939,0,0,0,0,0,0,3.5982,3.5981,3.5972,3.5974,3.5972,3.5956,3.5956,3.5953,3.5951,3.5935,3.5932,3.594,3.592,3.5919,3.5924,3.5934,3.591,3.5909,3.5936,3.5937,3.5938,3.5968,0,0,0,0,0,0,3.5982,3.5981,3.5987,3.5974,3.5972,3.5978,3.5956,3.5953,3.5951,3.5948,3.5935,3.5932,3.592,3.5924,3.5924,3.5933,3.5909,3.5935,3.5937,3.5938,3.5966,3.597,3.5973,0,0,0,0,0,3.5983,3.5995,3.5987,3.5987,3.5978,3.5978,3.5977,3.5963,3.5952,3.5957,3.5947,3.5933,3.5933,3.5925,3.5924,3.5934,3.5934,3.5936,3.5938,3.5964,3.5969,3.5973,0,0,0,0,0,0,3.6008,3.5993,3.5984,3.5993,3.5987,3.5974,3.598,3.5968,3.5965,3.5962,3.5944,3.5941,3.5948,3.5942,3.5933,3.5948,3.5932,3.5933,3.5952,3.5956,3.596,3.5961,3.5909,0,0,0,0,0,3.6016,3.6017,3.6003,3.6012,3.601,3.5996,3.5995,3.5985,3.5977,3.5975,3.5965,3.5958,3.5957,3.5956,3.5954,3.5965,3.5962,3.5972,3.5975,3.5979,3.598,3.5986,3.5991,3.5945,3.5945,3.5945,0,0,3.6029,3.6021,3.6023,3.6018,3.6012,3.6014,3.5994,3.5996,3.5997,3.5975,3.5979,3.5972,3.5963,3.5972,3.5975,3.5966,3.5992,3.5981,3.5984,3.5983,3.5989,3.5993,3.5997,3.5946,3.5946,3.5946,0,0,3.6056,3.605,3.6057,3.6052,3.6045,3.6035,3.6037,3.6025,3.602,3.6024,3.6008,3.6009,3.6007,3.6002,3.5999,3.6025,3.6012,3.6025,3.6044,3.605,3.6054,3.6057,3.6067,3.6071,3.6027,3.6027,3.6027,0,3.6074,3.6077,3.6062,3.6066,3.6065,3.6046,3.6053,3.6049,3.604,3.6039,3.603,3.6028,3.6021,3.6028,3.6035,3.6033,3.6035,3.6026,3.6055,3.6058,3.606,3.607,3.6073,3.6028,3.6028,3.6028,3.6028,0,3.61,3.6102,3.6109,3.6102,3.6101,3.6107,3.6093,3.6094,3.6084,3.6076,3.6081,3.6072,3.6068,3.6069,3.6059,3.6075,3.607,3.6058,3.6042,3.6067,3.6075,3.6078,3.6031,3.603,3.603,3.6029,0,0,3.6141,3.6128,3.613,3.6128,3.6118,3.612,3.6125,3.6122,3.6123,3.6118,3.6122,3.6122,3.6111,3.6108,3.6097,3.6103,3.6125,3.609,3.609,3.6097,3.6143,3.6152,3.6157,3.6117,3.6117,3.6118,3.6144,0,3.6165,3.6174,3.6162,3.6173,3.6175,3.6158,3.6162,3.6157,3.615,3.615,3.6142,3.6142,3.6128,3.6126,3.6131,3.6122,3.6134,3.6119,3.612,3.612,3.6123,3.6161,3.617,3.6195,3.6147,3.6148,3.6148,0,3.6195,3.6193,3.6204,3.6196,3.6196,3.62,3.6198,3.6198,3.6192,3.6187,3.6184,3.6172,3.6176,3.6161,3.6167,3.6157,3.6157,3.6153,3.6153,3.6153,3.6136,3.6161,3.6203,3.6207,3.6153,3.6153,3.6152,0,3.6224,3.6224,3.6231,3.623,3.6219,3.6223,3.6219,3.6212,3.6212,3.6209,3.6209,3.6206,3.6205,3.6204,3.6191,3.6181,3.6199,3.6182,3.6194,3.6195,3.6198,3.6198,3.6241,3.6199,3.6199,3.6199,3.6198,0,3.6252,3.626,3.6245,3.6249,3.6258,3.6244,3.6253,3.6247,3.6241,3.6244,3.6229,3.6232,3.6216,3.6217,3.6207,3.6214,3.6214,3.6209,3.6206,3.621,3.6211,3.6209,3.6207,3.62,3.6199,3.6199,3.6199,0,3.6286,3.6276,3.6283,3.6273,3.6271,3.6278,3.6269,3.6273,3.6266,3.627,3.627,3.6257,3.6258,3.6246,3.6244,3.6238,3.6249,3.6243,3.6251,3.625,3.6262,3.6261,3.6305,3.631,3.6265,3.6266,3.6266,0,3.6305,3.6311,3.6302,3.6304,3.6301,3.6303,3.6303,3.629,3.629,3.6285,3.6289,3.6289,3.6289,3.6291,3.6282,3.628,3.6274,3.629,3.6274,3.6278,3.6275,3.6275,3.6275,3.6293,3.6294,3.6294,3.6294,0,3.6339,3.6334,3.6335,3.6335,3.6335,3.6334,3.6331,3.6333,3.6319,3.6321,3.6322,3.6322,3.6321,3.6321,3.6318,3.6314,3.6302,3.63,3.6302,3.6306,3.6311,3.6309,3.626,3.6299,3.6298,3.6298,3.6298,3.6297,3.6366,3.6371,3.6366,3.6368,3.6365,3.6364,3.6367,3.636,3.6361,3.636,3.6353,3.6356,3.635,3.6346,3.6343,3.6345,3.6337,3.6341,3.6342,3.6343,3.6346,3.6311,3.6344,3.6344,3.6344,3.6344,3.6344,0,3.64,3.6396,3.6398,3.6396,3.6398,3.6387,3.6385,3.6386,3.639,3.6386,3.6386,3.6388,3.6389,3.638,3.638,3.6383,3.6378,3.6384,3.6383,3.6382,3.6352,3.635,3.6388,3.6388,3.6388,3.6388,3.6388,3.6388,3.6418,3.6426,3.642,3.6427,3.6423,3.6427,3.6426,3.6425,3.6422,3.6426,3.6426,3.6421,3.6416,3.6415,3.6416,3.6413,3.6413,3.6421,3.6417,3.6389,3.6384,3.638,3.6378,3.6421,3.6421,3.6447,3.6447,3.6447]}]]